Location: Pettit
(39.0209°N, 79.7181°W)
Time: 18:56:47
(UTC+00:00)

ACS3 Solar Sail - Pass Details

Date: 24 April 2026
Orbit: 894 x 947 km, 97.2° (Epoch: 12 May)

Event Time Altitude Azimuth Distance (km) Brightness Sun altitude
Rises 05:03:13 0° 29° (NNE) 3,561 5.4 -38.0°
Reaches altitude 10° 05:06:33 10° 49° (NE) 2,624 4.4 -38.0°
Enters shadow 05:08:02 14° 62° (ENE) 2,330 4.0 -38.1°
